Location: Bodest
(46.3000°N, 22.5667°E)
Time: 13:04:16
(UTC+00:00)

Cosmos 1844 Rocket - Pass Details

Date: 31 May 2022
Orbit: 826 x 843 km, 71.0° (Epoch: 28 June)

Event Time Altitude Azimuth Distance (km) Brightness Sun altitude
Rises 19:09:21 0° 338° (NNW) 3,383 7.3 -8.3°
Reaches altitude 10° 19:12:01 10° 347° (NNW) 2,443 6.1 -8.7°
Maximum altitude 19:17:08 35° 53° (NE) 1,312 3.7 -9.3°
Enters shadow 19:22:01 11° 118° (ESE) 2,367 4.4 -9.9°
